星链-33970 (STARLINK-33970)

导读

STARLINK-33970是美国于2025年5月23日发射的星链卫星,隶属于SpaceX公司打造的星链星座项目。该项目旨在构建覆盖全球的卫星互联网星座,为全球用户提供高速低延迟的宽带网络服务。此卫星加入星座后,进一步扩充了星链系统的在轨规模,助力提升全球范围尤其是偏远地区的网络覆盖能力。

Basic Information
目录编号:
64106
目录名称:
STARLINK-33970
国际标识:
2025-110L
轨道中心:
EARTH
卫星名称:
星链-33970
卫星全名:
星链-33970 (STARLINK-33970)
卫星状态:
在轨 (已飞行470 天)
发射日期:
2025-05-23 UTC
国别 :
美国 (US)
星等 :
--
Orbit Information
数据来源 国际轨道数据
星历时间: 2026-09-05T09:36:51+0800
10小时前
查看轨道信息
半长轴: 6840.84km
偏心率: 0.0001567
轨道倾角: 53.158°
近地点辐角 87.092°
升交点赤经 270.198°
平近点角 273.027°
近地点: 461.631km
远地点: 463.775km
周期: 93.848分钟
每日圈数: 15.344004
Detailed Information
固有亮度:
5
最大亮度:
2.5
卫星平台:
Starlink V1.0
覆盖范围:
全球
运营商:
太空探索技术公司
运营商所在国:
美国
制造商(研发单位):
太空探索技术公司
制造商所在国:
美国
使用方式:
暂无
Satellite Introduction
Starlink 计划是 SpaceX 推出的全球卫星互联网项目,通过发射低轨道卫星,为全球尤其是偏远地区提供高速、低延迟的互联网服务。自 2019 年起,Starlink 已部署数千颗卫星,旨在缩小全球数字鸿沟,推动互联网普及。该项目还为军事、航空等行业提供通信支持,带来广泛经济效益。
2D Orbit Map
3D Orbit Map
Orbit Altitude Analysis Chart
Orbit Inclination Analysis Chart
Orbit Comprehensive Analysis Chart
View Comprehensive Chart
Conjunction Data List
Event ID Objects TCA Miss Dist (km) Collision Risk Probability Collision Risk Index (CRI) Action
CDM_260907-140905-178406-410621
2026-09-07T
14:09:42+0000
0.292 km
中距离
2.281961E-4 高风险 0.82
CDM_260907-163805-211406-410621
2026-09-07T
16:38:01+0000
0.481 km
远距离
1.460494E-4 高风险 0.78
CDM_260907-145105-893506-410621
2026-09-07T
14:51:47+0000
0.781 km
远距离
3.812884E-5 中风险 0.67
CDM_260907-131705-893506-410621
2026-09-07T
13:17:59+0000
1.102 km
极远距离
1.192163E-5 中风险 0.57
CDM_260907-180405-178406-410621
2026-09-07T
18:04:11+0000
1.058 km
极远距离
5.999921E-6 低风险 0.51
CDM_260905-154904-750206-410622
HAWK-2C (47502)
2026-09-05T
15:49:19+0000
1.496 km
极远距离
3.841857E-6 低风险 0.47
CDM_260907-095203-074406-410621
2026-09-07T
09:52:54+0000
2.181 km
极远距离
2.320969E-6 低风险 0.42
CDM_260907-162505-893506-410621
2026-09-07T
16:25:34+0000
2.081 km
极远距离
1.690746E-6 低风险 0.4
CDM_260907-150405-211406-410621
2026-09-07T
15:04:14+0000
2.275 km
极远距离
1.362317E-6 低风险 0.38
CDM_260907-145804-302306-410621
2026-09-07T
14:58:06+0000
2.994 km
极远距离
1.185439E-6 低风险 0.36